Flag for Hong Kong Weather past 2 weeks in Kowloon, Hong Kong

Now
86 °F

Scattered clouds.


Feels Like: 89 °F
Forecast: 81 / 90 °F
Wind: 6 mph from West

Location: National Airport

Current Time: Sep 22, 2014 at 3:22:49 PM

Latest Report: Sep 22, 2014 at 3:00 PM


Visibility: N/A

Pressure: 29.71 "Hg

Humidity: 55%

Dew point: 68 °F

Location of KowloonLocation

Historic Weather in Kowloon — Graph

°F

Kowloon temperature yesterday

Maximum temperature yesterday: 86 °F (at 3:30 PM)
Minimum temperature yesterday: 81 °F (at 2:00 AM)
Average temperature yesterday: 83 °F

Past Weeks' High & Low Weather Summary

 TemperatureHumidityPressure
High95 °F (Sep 7, 2:00 PM)94% (Sep 12, 5:30 AM)29.95 "Hg (Sep 12, 5:30 AM)
Low79 °F (Sep 12, 5:30 AM)52% (Sep 20, 4:00 PM)29.47 "Hg (Sep 16, 3:00 AM)
Average86 °F71%29.72 "Hg
* Reported Sep 7 2:00 PM — Sep 22 2:00 PM, Kowloon, Weather by CustomWeather, © 2014

Note: Actual official high and low records may vary slightly from our data, if they occured in-between our weather recording intervals... More about our weather records

Advertising

Kowloon weather history for previous 24 hours

 ConditionsComfort  
Time TempWeatherWind HumidityBarometerVisibility
2:00 PM
Sep 22
84 °FPassing clouds.7 mph58%29.74 "Hg6 mi
1:30 PM86 °FPassing clouds.7 mph55%29.74 "Hg6 mi
1:00 PM86 °FPassing clouds.7 mph55%29.74 "Hg6 mi
12:30 PM86 °FPassing clouds.8 mph55%29.74 "Hg6 mi
12:00 PM86 °FPassing clouds.7 mph55%29.74 "Hg6 mi
11:30 AM84 °FPassing clouds.8 mph58%29.77 "Hg6 mi
11:00 AM84 °FSunny.8 mph58%29.77 "Hg10 mi
10:30 AM82 °FSunny.10 mph58%29.77 "Hg10 mi
10:00 AM82 °FSunny.8 mph58%29.77 "Hg10 mi
9:30 AM82 °FClear.8 mph62%29.77 "Hg6 mi
9:00 AM82 °FClear.8 mph58%29.77 "Hg6 mi
8:30 AM81 °FClear.7 mph62%29.74 "Hg6 mi
8:00 AM82 °FClear.9 mph58%29.74 "Hg6 mi
7:30 AM79 °FClear.7 mph65%29.74 "Hg6 mi
7:00 AM81 °FSunny.9 mph62%29.74 "Hg10 mi
6:30 AM79 °FPassing clouds.12 mph65%29.74 "HgN/A
6:00 AM79 °FPassing clouds.12 mph65%29.74 "HgN/A
5:30 AM79 °FPassing clouds.12 mph65%29.74 "HgN/A
5:00 AM79 °FPassing clouds.12 mph65%29.74 "HgN/A
4:30 AM81 °FPassing clouds.7 mph62%29.74 "HgN/A
4:00 AM81 °FPassing clouds.9 mph62%29.74 "HgN/A
3:30 AM81 °FPassing clouds.10 mph62%29.71 "HgN/A
3:00 AM81 °FPassing clouds.9 mph62%29.71 "HgN/A
2:30 AM81 °FPassing clouds.10 mph66%29.74 "HgN/A
2:00 AM81 °FPassing clouds.9 mph66%29.74 "HgN/A
1:30 AM82 °FPassing clouds.9 mph62%29.71 "HgN/A
1:00 AM82 °FPassing clouds.9 mph62%29.74 "HgN/A
12:30 AM82 °FPassing clouds.8 mph62%29.74 "HgN/A
12:00 AM82 °FPassing clouds.7 mph62%29.74 "HgN/A
11:30 PM
Sep 21
84 °FPassing clouds.8 mph58%29.74 "HgN/A
11:00 PM84 °FPassing clouds.10 mph58%29.74 "HgN/A
10:30 PM84 °FPassing clouds.9 mph58%29.74 "HgN/A
10:00 PM84 °FPassing clouds.9 mph58%29.74 "HgN/A
9:30 PM84 °FPassing clouds.8 mph58%29.74 "HgN/A
9:00 PM84 °FPassing clouds.7 mph58%29.74 "HgN/A
8:30 PM84 °FPassing clouds.8 mph58%29.74 "HgN/A
8:00 PM84 °FPassing clouds.7 mph55%29.71 "HgN/A
7:30 PM84 °FPassing clouds.6 mph55%29.71 "HgN/A
7:00 PM84 °FPassing clouds.9 mph55%29.71 "HgN/A
6:30 PM84 °FPassing clouds.13 mph55%29.68 "HgN/A
6:00 PM84 °FPassing clouds.17 mph55%29.68 "HgN/A
5:30 PM84 °FPassing clouds.14 mph58%29.68 "HgN/A
5:00 PM86 °FPassing clouds.12 mph55%29.68 "HgN/A
4:30 PM84 °FPassing clouds.17 mph55%29.65 "HgN/A
4:00 PM86 °FPassing clouds.14 mph55%29.65 "HgN/A
3:30 PM86 °FPassing clouds.12 mph55%29.65 "HgN/A
3:00 PM84 °FPassing clouds.13 mph55%29.65 "HgN/A
Weather by CustomWeather, © 2014

See weather overviewHow to use our weather pages